Meteo Giornale » Osservazioni meteo Germania » Niederstetten
ore: 19:20 - Osservazioni Meteo Niederstetten
Lat. 49° 24' N Lon. 9° 58' E Alt. 468 metri s.l.m.
20 °C
Poco Nuvoloso
Temp. 24 Ore
13 °C
22 °C
Ovest
11.1 Km/h
Dew point 9 °C
Umidità 49 %
Visibilità 10 Km
Il sole sorge alle ore 06:36
Il sole tramonta alle ore 20:04
| Data e Ora | Cielo e Fenomeni | T °C | DP °C | Um. % | Pres. hPa | Vis. km | Vento km/h | |
|---|---|---|---|---|---|---|---|---|
| Oggi h: 19:20 | Poco Nuvoloso | 20 | 9 | 49 | 1021 | 10 | O 11.1 | |
| Oggi h: 18:20 | Poco Nuvoloso | 21 | 9 | 46 | 1021 | 10 | O 13 | |
| Oggi h: 17:20 | Poco Nuvoloso | 22 | 9 | 43 | 1021 | 10 | O 16.7 | |
| Oggi h: 16:20 | Poco Nuvoloso | 21 | 8 | 43 | 1021 | 10 | O 18.5 | |
| Oggi h: 15:20 | Nuvoloso | 21 | 9 | 46 | 1022 | 10 | O 22.2 | |
| Oggi h: 14:20 | Nuvoloso | 20 | 10 | 52 | 1022 | 10 | O 16.7 | |
| Oggi h: 13:20 | Molto Nuvoloso | 20 | 10 | 52 | 1022 | 10 | O/SO 24 | |
| Oggi h: 12:20 | Molto Nuvoloso | 19 | 10 | 55 | 1022 | 10 | O 25.9 | |
| Oggi h: 11:20 | Molto Nuvoloso | 18 | 11 | 63 | 1022 | 10 | O 22.2 | |
| Oggi h: 10:20 | Molto Nuvoloso | 17 | 11 | 67 | 1022 | 10 | O 13 | |
| Oggi h: 09:20 | Molto Nuvoloso | 16 | 12 | 77 | 1022 | 10 | O 14.8 | |
| Oggi h: 08:20 | Molto Nuvoloso | 15 | 12 | 82 | 1021 | 10 | O/SO 14.8 | |
| Oggi h: 07:20 | Nuvoloso | 13 | 12 | 93 | 1021 | 10 | N 5.5 | |
| Oggi h: 06:20 | Nuvoloso | 13 | 11 | 87 | 1021 | 10 | N 5.5 | |
| Oggi h: 05:20 | Poco Nuvoloso | 13 | 12 | 93 | 1021 | 10 | O/SO 11.1 | |
| Oggi h: 04:20 | Nuvoloso | 14 | 12 | 87 | 1021 | 10 | O/SO 9.3 | |
| Oggi h: 03:20 | Nuvoloso | 14 | 12 | 87 | 1021 | 10 | O/SO 13 | |
| Oggi h: 02:20 | Poco Nuvoloso | 14 | 12 | 87 | 1020 | 10 | O 13 | |
| Oggi h: 01:20 | Poco Nuvoloso | 14 | 12 | 87 | 1020 | 10 | O/SO 11.1 | |
| Oggi h: 00:20 | Nuvoloso | 15 | 12 | 82 | 1020 | 10 | O 16.7 | |
| Ieri h: 23:20 | Nuvoloso | 16 | 12 | 77 | 1020 | 10 | O 24 | |
| Ieri h: 22:20 | Poco Nuvoloso | 16 | 12 | 77 | 1019 | 10 | O 22.2 | |
| Ieri h: 21:20 | Nuvoloso | 16 | 12 | 77 | 1019 | 10 | O/SO 24 | |
| Ieri h: 20:20 | Poco Nuvoloso | 17 | 12 | 72 | 1018 | 10 | O/SO 25.9 | |



